This is the latest recevied weather packets stored in our database for station/object WC4PEM-8. If no packets are shown the sender has not sent any weather packets the latest 10 day(s).
| Time | Temp. | Humidity | Pressure | Rain* | Wind** | Luminosity | Snow |
|---|---|---|---|---|---|---|---|
| 1777853462 | 22.78° C | 71% | 1015.7 hPa | 0 mm | - | - | - |
| 1777853162 | 22.78° C | 70% | 1015.7 hPa | 0 mm | - | - | - |
| 1777852862 | 22.78° C | 70% | 1015.6 hPa | 0 mm | - | - | - |
| 1777852562 | 23.33° C | 69% | 1015.6 hPa | 0 mm | - | - | - |
| 1777852298 | 23.33° C | 68% | 1015.5 hPa | 0 mm | - | - | - |
| 1777852262 | 23.33° C | 69% | 1015.7 hPa | 0 mm | - | - | - |
| 1777851962 | 23.33° C | 68% | 1015.5 hPa | 0 mm | - | - | - |
| 1777851911 | 23.33° C | 67% | 1015.4 hPa | 0 mm | - | - | - |
| 1777851693 | 23.89° C | 67% | 1015.4 hPa | 0 mm | - | - | - |
| 1777851662 | 23.33° C | 67% | 1015.4 hPa | 0 mm | - | - | - |
| 1777851362 | 23.89° C | 67% | 1015.4 hPa | 0 mm | - | - | - |
| 1777851239 | 23.89° C | 66% | 1015.2 hPa | 0 mm | - | - | - |
| 1777851062 | 23.89° C | 67% | 1015.4 hPa | 0 mm | - | - | - |
| 1777850762 | 23.89° C | 66% | 1015.2 hPa | 0 mm | - | - | - |
| 1777850727 | 23.89° C | 65% | 1015.3 hPa | 0 mm | - | - | - |
| 1777850462 | 23.89° C | 65% | 1015.3 hPa | 0 mm | - | - | - |
| 1777850415 | 24.44° C | 63% | 1015.2 hPa | 0 mm | - | - | - |
| 1777850162 | 23.89° C | 64% | 1015.2 hPa | 0 mm | - | - | - |
| 1777849862 | 24.44° C | 64% | 1015.2 hPa | 0 mm | - | - | - |
| 1777849562 | 24.44° C | 63% | 1015.2 hPa | 0 mm | - | - | - |
| 1777849262 | 24.44° C | 63% | 1015.3 hPa | 0 mm | - | - | - |
| 1777848962 | 24.44° C | 63% | 1015.3 hPa | 0 mm | - | - | - |
| 1777848662 | 24.44° C | 62% | 1015.3 hPa | 0 mm | - | - | - |
| 1777848362 | 24.44° C | 62% | 1015.2 hPa | 0 mm | - | - | - |
| 1777848062 | 24.44° C | 61% | 1015.2 hPa | 0 mm | - | - | - |
* Rain latest hour (hover to see other rain measurements)
** Current wind speed in m/s (hover to see current wind gust speed)